Hourly Weather Luebo

Today, 13 May, Thursday

Time Temperature Precipitation Wind Pressure Humidity
00:00 +22°C° 0 mm 0 mps 717 mmHg 74%
01:00 +22°C° 0 mm 0 mps 717 mmHg 76%
02:00 +21°C° 0 mm 0 mps 717 mmHg 78%
03:00 +21°C° 0 mm 0 mps 717 mmHg 79%
04:00 +20°C° 0 mm 0 mps 717 mmHg 81%
05:00 +23°C° 0 mm 1 mps 717 mmHg 78%
06:00 +24°C° 0 mm 1 mps 718 mmHg 74%
07:00 +24°C° 0 mm 1 mps 718 mmHg 71%
08:00 +27°C° 0 mm 1 mps 718 mmHg 61%
09:00 +30°C° 0 mm 1 mps 719 mmHg 52%
10:00 +32°C° 0 mm 1 mps 719 mmHg 42%
11:00 +33°C° 0 mm 1 mps 718 mmHg 39%
12:00 +34°C° 0 mm 1 mps 717 mmHg 35%
13:00 +35°C° 0 mm 1 mps 716 mmHg 32%
14:00 +35°C° 0 mm 1 mps 716 mmHg 36%
15:00 +32°C° 0 mm 0 mps 715 mmHg 40%
16:00 +32°C° 0 mm 0 mps 715 mmHg 44%
17:00 +29°C° 0 mm 0 mps 715 mmHg 52%
18:00 +26°C° 0 mm 0 mps 716 mmHg 59%
19:00 +24°C° 0 mm 0 mps 716 mmHg 67%
20:00 +23°C° 0 mm 0 mps 716 mmHg 69%
21:00 +24°C° 0 mm 1 mps 717 mmHg 72%
22:00 +24°C° 0 mm 1 mps 717 mmHg 74%
23:00 +23°C° 0 mm 1 mps 716 mmHg 75%

Tomorrow, 14 May, Friday

Time Temperature Precipitation Wind Pressure Humidity
00:00 +23°C° 0 mm 1 mps 716 mmHg 76%
01:00 +21°C° 0 mm 0 mps 716 mmHg 78%
02:00 +20°C° 0 mm 0 mps 716 mmHg 78%
03:00 +20°C° 0 mm 0 mps 716 mmHg 78%
04:00 +20°C° 0 mm 0 mps 716 mmHg 78%
05:00 +22°C° 0 mm 1 mps 717 mmHg 76%
06:00 +23°C° 0 mm 1 mps 717 mmHg 73%
07:00 +24°C° 0 mm 1 mps 718 mmHg 70%
08:00 +27°C° 0 mm 1 mps 718 mmHg 60%
09:00 +29°C° 0 mm 1 mps 718 mmHg 50%
10:00 +32°C° 0 mm 1 mps 718 mmHg 40%
11:00 +33°C° 0 mm 1 mps 718 mmHg 37%
12:00 +34°C° 0 mm 1 mps 717 mmHg 34%
13:00 +36°C° 0 mm 1 mps 716 mmHg 31%
14:00 +35°C° 0 mm 1 mps 716 mmHg 35%
15:00 +32°C° 0 mm 0 mps 715 mmHg 39%
16:00 +32°C° 0 mm 0 mps 715 mmHg 43%
17:00 +29°C° 0 mm 0 mps 715 mmHg 50%
18:00 +26°C° 0 mm 0 mps 716 mmHg 57%
19:00 +24°C° 0 mm 0 mps 716 mmHg 64%
20:00 +23°C° 0 mm 0 mps 716 mmHg 66%
21:00 +22°C° 0 mm 0 mps 716 mmHg 69%
22:00 +21°C° 0 mm 0 mps 717 mmHg 72%
23:00 +21°C° 0 mm 0 mps 716 mmHg 73%

Day after tomorrow, 15 May, Saturday

Time Temperature Precipitation Wind Pressure Humidity
00:00 +21°C° 0 mm 0 mps 716 mmHg 75%
01:00 +20°C° 0 mm 0 mps 716 mmHg 76%
02:00 +20°C° 0 mm 0 mps 716 mmHg 77%
03:00 +20°C° 0 mm 0 mps 716 mmHg 78%
04:00 +19°C° 0 mm 0 mps 716 mmHg 79%
05:00 +20°C° 0 mm 0 mps 717 mmHg 76%
06:00 +23°C° 0 mm 1 mps 717 mmHg 73%
07:00 +24°C° 0 mm 1 mps 718 mmHg 70%
08:00 +27°C° 0 mm 1 mps 718 mmHg 60%
09:00 +30°C° 0 mm 1 mps 718 mmHg 50%
10:00 +33°C° 0 mm 1 mps 718 mmHg 40%
11:00 +34°C° 0 mm 1 mps 717 mmHg 36%
12:00 +35°C° 0 mm 1 mps 717 mmHg 33%
13:00 +36°C° 0 mm 1 mps 716 mmHg 30%
14:00 +35°C° 0 mm 1 mps 716 mmHg 33%
15:00 +35°C° 0 mm 1 mps 715 mmHg 37%
16:00 +32°C° 0 mm 0 mps 715 mmHg 41%
17:00 +29°C° 0 mm 0 mps 715 mmHg 46%
18:00 +27°C° 0 mm 0 mps 715 mmHg 52%
19:00 +24°C° 0 mm 0 mps 716 mmHg 58%
20:00 +23°C° 0 mm 0 mps 716 mmHg 61%
21:00 +25°C° 0 mm 1 mps 716 mmHg 64%
22:00 +24°C° 0 mm 1 mps 716 mmHg 67%
23:00 +24°C° 0 mm 1 mps 716 mmHg 69%

16 May, Sunday

Time Temperature Precipitation Wind Pressure Humidity
00:00 +21°C° 0 mm 0 mps 716 mmHg 72%
01:00 +21°C° 0 mm 0 mps 716 mmHg 74%
02:00 +21°C° 0 mm 0 mps 716 mmHg 76%
03:00 +21°C° 0 mm 0 mps 716 mmHg 77%
04:00 +20°C° 0 mm 0 mps 716 mmHg 79%
05:00 +21°C° 0 mm 0 mps 716 mmHg 76%
06:00 +22°C° 0 mm 0 mps 717 mmHg 73%
07:00 +23°C° 0 mm 0 mps 717 mmHg 70%
08:00 +28°C° 0 mm 1 mps 718 mmHg 61%
09:00 +31°C° 0 mm 1 mps 718 mmHg 52%
10:00 +34°C° 0 mm 1 mps 718 mmHg 42%
11:00 +35°C° 0 mm 1 mps 717 mmHg 39%
12:00 +36°C° 0 mm 1 mps 717 mmHg 36%
13:00 +37°C° 0 mm 1 mps 716 mmHg 32%
14:00 +36°C° 0 mm 1 mps 715 mmHg 37%
15:00 +35°C° 0 mm 1 mps 715 mmHg 42%
16:00 +33°C° 0 mm 1 mps 715 mmHg 47%
17:00 +32°C° 0 mm 1 mps 715 mmHg 50%
18:00 +30°C° 0 mm 1 mps 715 mmHg 53%
19:00 +27°C° 0 mm 0 mps 716 mmHg 57%
20:00 +26°C° 0 mm 0 mps 716 mmHg 59%
21:00 +26°C° 0 mm 0 mps 716 mmHg 62%
22:00 +27°C° 0 mm 1 mps 716 mmHg 65%
23:00 +24°C° 0 mm 0 mps 716 mmHg 68%

17 May, Monday

Time Temperature Precipitation Wind Pressure Humidity
00:00 +23°C° 0 mm 0 mps 716 mmHg 71%
01:00 +23°C° 0 mm 0 mps 715 mmHg 74%
02:00 +22°C° 0 mm 0 mps 715 mmHg 75%
03:00 +22°C° 0 mm 0 mps 716 mmHg 77%
04:00 +22°C° 0 mm 0 mps 716 mmHg 78%
05:00 +22°C° 0 mm 0 mps 716 mmHg 76%
06:00 +23°C° 0 mm 0 mps 717 mmHg 73%
07:00 +24°C° 0 mm 0 mps 718 mmHg 70%
08:00 +27°C° 0 mm 0 mps 718 mmHg 60%
09:00 +32°C° 0 mm 1 mps 718 mmHg 50%
10:00 +35°C° 0 mm 1 mps 718 mmHg 39%
11:00 +35°C° 0 mm 1 mps 718 mmHg 36%
12:00 +36°C° 0 mm 1 mps 717 mmHg 33%
13:00 +37°C° 0 mm 1 mps 716 mmHg 31%
14:00 +37°C° 0 mm 1 mps 716 mmHg 35%
15:00 +34°C° 0 mm 0 mps 715 mmHg 39%
16:00 +33°C° 0 mm 0 mps 715 mmHg 43%
17:00 +31°C° 0 mm 0 mps 715 mmHg 49%
18:00 +28°C° 0 mm 0 mps 716 mmHg 55%
19:00 +26°C° 0 mm 0 mps 716 mmHg 61%
20:00 +26°C° 0 mm 0 mps 716 mmHg 62%
21:00 +25°C° 0 mm 0 mps 716 mmHg 64%
22:00 +25°C° 0 mm 0 mps 717 mmHg 65%
23:00 +24°C° 0 mm 0 mps 717 mmHg 68%

18 May, Tuesday

Time Temperature Precipitation Wind Pressure Humidity
00:00 +23°C° 0 mm 0 mps 716 mmHg 70%
01:00 +22°C° 0 mm 0 mps 716 mmHg 73%
02:00 +22°C° 0 mm 0 mps 716 mmHg 74%
03:00 +22°C° 0 mm 0 mps 716 mmHg 75%
04:00 +21°C° 0 mm 0 mps 717 mmHg 76%
05:00 +22°C° 0 mm 0 mps 717 mmHg 73%
06:00 +23°C° 0 mm 0 mps 718 mmHg 70%
07:00 +23°C° 0 mm 0 mps 718 mmHg 68%
08:00 +26°C° 0 mm 0 mps 719 mmHg 58%
09:00 +31°C° 0 mm 1 mps 719 mmHg 48%
10:00 +34°C° 0 mm 1 mps 719 mmHg 38%
11:00 +35°C° 0 mm 1 mps 719 mmHg 35%
12:00 +36°C° 0 mm 1 mps 718 mmHg 31%
13:00 +37°C° 0 mm 1 mps 717 mmHg 28%
14:00 +36°C° 0 mm 1 mps 717 mmHg 31%
15:00 +36°C° 0 mm 1 mps 716 mmHg 34%
16:00 +35°C° 0 mm 1 mps 716 mmHg 36%
17:00 +32°C° 0 mm 1 mps 716 mmHg 42%
18:00 +30°C° 0 mm 1 mps 717 mmHg 48%
19:00 +27°C° 0 mm 1 mps 717 mmHg 53%
20:00 +24°C° 0 mm 0 mps 717 mmHg 56%
21:00 +23°C° 0 mm 0 mps 717 mmHg 58%
22:00 +23°C° 0 mm 0 mps 718 mmHg 60%
23:00 +22°C° 0 mm 0 mps 717 mmHg 61%
Show more

We Need Your Consent

Meteoprog and our Service Providers may store and access personal data such as cookies, device identifiers or other similar technologies on your device and process such data to personalise content and ads, as well as provide social media features and to analyse the traffic.

  • Store and/or access information on your device

    Cookies, device identifiers or other information can be stored or accessed on your device for the purposes indicated above.

  • Personalised ads and content, ad and content measurement, audience insights, and products development

    Ads and content can be personalised based on a profile. More data can be added to better personalise ads and content. Ad and content performance can be measured. Insights about the audience who saw the ads and content can be derived. Such data can be used to develop or improve user’s experience, systems and software.

By clicking ‘I Agree’ you will allow the use of indicated cookies, device identifiers, web beacons or other similar technologies. Your settings can be changed in the browser on your device.

For certain purposes, legitimate interests may be relied on, rather than consent. You can read more about this in our Privacy and Cookie Policy.